timestamp,wind_dir_avg,wind_spd_max_dir,wind_spd_avg,wind_spd_gust,battery_voltage,lat,long
2019-02-23 00:00:00+00:00,320.0,321.0,9.12,10.45,,47.59359,-54.27349
2019-02-23 00:10:00+00:00,318.0,322.0,7.89,10.25,,47.59359,-54.27349
2019-02-23 00:20:00+00:00,322.0,325.0,8.98,10.5,,47.59359,-54.27349
2019-02-23 00:30:00+00:00,323.0,323.0,10.32,13.26,,47.59359,-54.27349
2019-02-23 00:40:00+00:00,325.0,325.0,10.89,13.93,,47.59359,-54.27349
2019-02-23 00:50:00+00:00,323.0,326.0,9.4,11.19,,47.59359,-54.27349
2019-02-23 01:00:00+00:00,327.0,330.0,10.18,12.11,,47.59359,-54.27349
2019-02-23 01:10:00+00:00,329.0,326.0,9.45,11.3,,47.59359,-54.27349
2019-02-23 01:20:00+00:00,335.0,339.0,12.38,14.45,,47.59359,-54.27349
2019-02-23 01:30:00+00:00,336.0,332.0,13.7,16.11,,47.59359,-54.27349
2019-02-23 01:40:00+00:00,339.0,332.0,12.46,15.24,,47.59359,-54.27349
2019-02-23 01:50:00+00:00,336.0,338.0,12.87,14.61,,47.59359,-54.27349
2019-02-23 02:00:00+00:00,334.0,323.0,12.25,15.12,,47.59359,-54.27349
2019-02-23 02:10:00+00:00,335.0,345.0,10.71,12.88,,47.59359,-54.27349
2019-02-23 02:20:00+00:00,338.0,335.0,11.45,12.94,,47.59359,-54.27349
2019-02-23 02:30:00+00:00,329.0,329.0,11.32,14.18,,47.59359,-54.27349
2019-02-23 02:40:00+00:00,339.0,335.0,9.76,12.24,,47.59359,-54.27349
2019-02-23 02:50:00+00:00,332.0,330.0,11.1,13.39,,47.59359,-54.27349
2019-02-23 03:00:00+00:00,329.0,326.0,11.95,13.68,,47.59359,-54.27349
2019-02-23 03:10:00+00:00,333.0,328.0,9.74,11.77,,47.59359,-54.27349
2019-02-23 03:20:00+00:00,320.0,338.0,5.41,8.91,,47.59359,-54.27349
2019-02-23 03:30:00+00:00,319.0,326.0,5.95,7.53,,47.59359,-54.27349
2019-02-23 03:40:00+00:00,319.0,320.0,7.1,10.71,,47.59359,-54.27349
2019-02-23 03:50:00+00:00,322.0,324.0,7.98,10.3,,47.59359,-54.27349
2019-02-23 04:00:00+00:00,319.0,315.0,5.71,6.94,,47.59359,-54.27349
2019-02-23 04:10:00+00:00,316.0,308.0,6.03,6.98,,47.59359,-54.27349
2019-02-23 04:20:00+00:00,313.0,312.0,5.55,6.99,,47.59359,-54.27349
2019-02-23 04:30:00+00:00,315.0,328.0,5.52,7.23,,47.59359,-54.27349
2019-02-23 04:40:00+00:00,317.0,317.0,6.63,8.79,,47.59359,-54.27349
2019-02-23 04:50:00+00:00,315.0,322.0,6.34,8.21,,47.59359,-54.27349
2019-02-23 05:00:00+00:00,315.0,317.0,6.51,8.58,,47.59359,-54.27349
2019-02-23 05:10:00+00:00,310.0,331.0,6.66,8.96,,47.59359,-54.27349
2019-02-23 05:20:00+00:00,310.0,312.0,6.53,8.11,,47.59359,-54.27349
2019-02-23 05:30:00+00:00,312.0,318.0,6.56,8.42,,47.59359,-54.27349
2019-02-23 05:40:00+00:00,317.0,325.0,6.21,9.32,,47.59359,-54.27349
2019-02-23 05:50:00+00:00,319.0,323.0,6.88,9.18,,47.59359,-54.27349
2019-02-23 06:00:00+00:00,323.0,323.0,5.04,7.24,,47.59359,-54.27349
2019-02-23 06:10:00+00:00,329.0,328.0,4.2,6.86,,47.59359,-54.27349
2019-02-23 06:20:00+00:00,315.0,326.0,6.12,7.94,,47.59359,-54.27349
2019-02-23 06:30:00+00:00,328.0,319.0,6.17,8.26,,47.59359,-54.27349
2019-02-23 06:40:00+00:00,321.0,317.0,6.34,8.51,,47.59359,-54.27349
2019-02-23 06:50:00+00:00,321.0,325.0,7.64,9.45,,47.59359,-54.27349
2019-02-23 07:00:00+00:00,332.0,330.0,5.08,7.94,,47.59359,-54.27349
2019-02-23 07:10:00+00:00,314.0,316.0,7.02,8.03,,47.59359,-54.27349
2019-02-23 07:20:00+00:00,317.0,315.0,6.06,8.38,,47.59359,-54.27349
2019-02-23 07:30:00+00:00,314.0,315.0,7.75,9.53,,47.59359,-54.27349
2019-02-23 07:40:00+00:00,320.0,315.0,6.96,9.08,,47.59359,-54.27349
2019-02-23 07:50:00+00:00,324.0,328.0,7.11,8.12,,47.59359,-54.27349
2019-02-23 08:00:00+00:00,332.0,350.0,6.05,7.69,,47.59359,-54.27349
2019-02-23 08:10:00+00:00,326.0,319.0,6.58,8.5,,47.59359,-54.27349
2019-02-23 08:20:00+00:00,313.0,308.0,8.08,10.28,,47.59359,-54.27349
2019-02-23 08:30:00+00:00,314.0,314.0,8.33,9.31,,47.59359,-54.27349
2019-02-23 08:40:00+00:00,316.0,319.0,8.23,9.53,,47.59359,-54.27349
2019-02-23 08:50:00+00:00,325.0,329.0,7.62,10.1,,47.59359,-54.27349
2019-02-23 09:00:00+00:00,321.0,320.0,7.63,9.89,,47.59359,-54.27349
2019-02-23 09:10:00+00:00,327.0,308.0,6.44,8.6,,47.59359,-54.27349
2019-02-23 09:20:00+00:00,326.0,327.0,6.83,9.23,,47.59359,-54.27349
2019-02-23 09:30:00+00:00,326.0,327.0,7.27,8.68,,47.59359,-54.27349
2019-02-23 09:40:00+00:00,336.0,332.0,6.94,8.77,,47.59359,-54.27349
2019-02-23 09:50:00+00:00,322.0,326.0,7.74,8.75,,47.59359,-54.27349
2019-02-23 10:00:00+00:00,334.0,324.0,6.62,8.04,,47.59359,-54.27349
2019-02-23 10:10:00+00:00,343.0,350.0,5.21,7.12,,47.59359,-54.27349
2019-02-23 10:20:00+00:00,343.0,332.0,5.4,6.51,,47.59359,-54.27349
2019-02-23 10:30:00+00:00,332.0,338.0,5.44,6.86,,47.59359,-54.27349
2019-02-23 10:40:00+00:00,334.0,328.0,6.78,8.62,,47.59359,-54.27349
2019-02-23 10:50:00+00:00,348.0,335.0,6.0,8.31,,47.59359,-54.27349
2019-02-23 11:00:00+00:00,348.0,341.0,5.88,8.16,,47.59359,-54.27349
2019-02-23 11:10:00+00:00,359.0,356.0,5.8,7.65,,47.59359,-54.27349
2019-02-23 11:20:00+00:00,346.0,4.0,5.72,7.77,,47.59359,-54.27349
2019-02-23 11:30:00+00:00,349.0,343.0,5.71,7.75,,47.59359,-54.27349
2019-02-23 11:40:00+00:00,329.0,327.0,6.87,8.47,,47.59359,-54.27349
2019-02-23 11:50:00+00:00,334.0,332.0,6.37,8.63,,47.59359,-54.27349
2019-02-23 12:00:00+00:00,347.0,340.0,6.65,8.78,,47.59359,-54.27349
2019-02-23 12:10:00+00:00,342.0,354.0,7.85,11.05,,47.59359,-54.27349
2019-02-23 12:20:00+00:00,341.0,348.0,6.85,8.55,,47.59359,-54.27349
2019-02-23 12:30:00+00:00,334.0,330.0,7.93,11.73,,47.59359,-54.27349
2019-02-23 12:40:00+00:00,339.0,341.0,7.6,9.98,,47.59359,-54.27349
2019-02-23 12:50:00+00:00,345.0,338.0,6.94,10.34,,47.59359,-54.27349
2019-02-23 13:00:00+00:00,341.0,344.0,8.31,11.3,,47.59359,-54.27349
2019-02-23 13:10:00+00:00,345.0,352.0,6.66,8.94,,47.59359,-54.27349
2019-02-23 13:20:00+00:00,322.0,327.0,9.39,12.12,,47.59359,-54.27349
2019-02-23 13:30:00+00:00,332.0,324.0,6.78,8.63,,47.59359,-54.27349
2019-02-23 13:40:00+00:00,329.0,317.0,7.33,10.19,,47.59359,-54.27349
2019-02-23 13:50:00+00:00,334.0,333.0,8.09,10.06,,47.59359,-54.27349
2019-02-23 14:00:00+00:00,340.0,329.0,6.92,8.63,,47.59359,-54.27349
2019-02-23 14:10:00+00:00,328.0,324.0,7.72,9.72,,47.59359,-54.27349
2019-02-23 14:20:00+00:00,342.0,338.0,5.94,8.25,,47.59359,-54.27349
2019-02-23 14:30:00+00:00,346.0,342.0,6.27,9.03,,47.59359,-54.27349
2019-02-23 14:40:00+00:00,331.0,330.0,7.23,8.38,,47.59359,-54.27349
2019-02-23 14:50:00+00:00,339.0,336.0,6.85,8.62,,47.59359,-54.27349
2019-02-23 15:00:00+00:00,335.0,332.0,6.64,9.65,,47.59359,-54.27349
2019-02-23 15:10:00+00:00,335.0,329.0,7.59,9.42,,47.59359,-54.27349
2019-02-23 15:20:00+00:00,335.0,330.0,7.36,9.43,,47.59359,-54.27349
2019-02-23 15:30:00+00:00,344.0,342.0,7.11,8.68,,47.59359,-54.27349
2019-02-23 15:40:00+00:00,337.0,327.0,7.69,9.64,,47.59359,-54.27349
2019-02-23 15:50:00+00:00,334.0,324.0,7.71,9.78,,47.59359,-54.27349
2019-02-23 16:00:00+00:00,326.0,328.0,8.73,9.82,,47.59359,-54.27349
2019-02-23 16:10:00+00:00,313.0,312.0,7.09,8.53,,47.59359,-54.27349
2019-02-23 16:20:00+00:00,347.0,344.0,7.88,8.82,,47.59359,-54.27349
2019-02-23 16:30:00+00:00,329.0,331.0,6.67,8.99,,47.59359,-54.27349
2019-02-23 16:40:00+00:00,319.0,328.0,5.99,7.91,,47.59359,-54.27349
2019-02-23 16:50:00+00:00,324.0,330.0,8.5,11.53,,47.59359,-54.27349
2019-02-23 17:00:00+00:00,328.0,336.0,7.91,10.56,,47.59359,-54.27349
2019-02-23 17:10:00+00:00,334.0,339.0,10.59,12.83,,47.59359,-54.27349
2019-02-23 17:20:00+00:00,321.0,314.0,8.41,10.59,,47.59359,-54.27349
2019-02-23 17:30:00+00:00,335.0,338.0,10.7,12.55,,47.59359,-54.27349
2019-02-23 17:40:00+00:00,335.0,341.0,10.06,13.17,,47.59359,-54.27349
2019-02-23 17:50:00+00:00,341.0,336.0,10.48,12.44,,47.59359,-54.27349
2019-02-23 18:00:00+00:00,334.0,330.0,12.46,14.51,,47.59359,-54.27349
2019-02-23 18:10:00+00:00,331.0,329.0,12.31,15.15,,47.59359,-54.27349
2019-02-23 18:20:00+00:00,326.0,317.0,10.0,12.5,,47.59359,-54.27349
2019-02-23 18:30:00+00:00,335.0,337.0,10.94,13.01,,47.59359,-54.27349
2019-02-23 18:40:00+00:00,327.0,325.0,9.88,12.18,,47.59359,-54.27349
2019-02-23 18:50:00+00:00,331.0,330.0,7.04,8.7,,47.59359,-54.27349
2019-02-23 19:00:00+00:00,332.0,320.0,8.68,12.07,,47.59359,-54.27349
2019-02-23 19:10:00+00:00,329.0,325.0,8.56,11.15,,47.59359,-54.27349
2019-02-23 19:20:00+00:00,328.0,328.0,7.6,10.77,,47.59359,-54.27349
2019-02-23 19:30:00+00:00,331.0,335.0,8.95,11.54,,47.59359,-54.27349
2019-02-23 19:40:00+00:00,334.0,332.0,8.94,10.49,,47.59359,-54.27349
2019-02-23 19:50:00+00:00,329.0,324.0,9.48,11.66,,47.59359,-54.27349
2019-02-23 20:00:00+00:00,333.0,327.0,8.17,10.31,,47.59359,-54.27349
2019-02-23 20:10:00+00:00,336.0,343.0,10.96,12.96,,47.59359,-54.27349
2019-02-23 20:20:00+00:00,314.0,305.0,10.65,12.32,,47.59359,-54.27349
2019-02-23 20:30:00+00:00,339.0,338.0,9.75,11.69,,47.59359,-54.27349
2019-02-23 20:40:00+00:00,331.0,327.0,11.08,13.44,,47.59359,-54.27349
2019-02-23 20:50:00+00:00,342.0,340.0,11.05,12.72,,47.59359,-54.27349
2019-02-23 21:00:00+00:00,342.0,341.0,9.28,12.04,,47.59359,-54.27349
2019-02-23 21:10:00+00:00,339.0,344.0,8.13,11.03,,47.59359,-54.27349
2019-02-23 21:20:00+00:00,339.0,344.0,9.93,11.28,,47.59359,-54.27349
2019-02-23 21:30:00+00:00,338.0,333.0,9.91,11.08,,47.59359,-54.27349
2019-02-23 21:40:00+00:00,338.0,331.0,9.79,12.07,,47.59359,-54.27349
2019-02-23 21:50:00+00:00,331.0,330.0,9.06,11.53,,47.59359,-54.27349
2019-02-23 22:00:00+00:00,341.0,341.0,7.76,10.4,,47.59359,-54.27349
2019-02-23 22:10:00+00:00,344.0,342.0,8.99,11.23,,47.59359,-54.27349
2019-02-23 22:20:00+00:00,340.0,340.0,7.56,11.18,,47.59359,-54.27349
2019-02-23 22:30:00+00:00,328.0,339.0,6.07,10.05,,47.59359,-54.27349
2019-02-23 22:40:00+00:00,324.0,324.0,5.67,8.85,,47.59359,-54.27349
2019-02-23 22:50:00+00:00,322.0,308.0,5.51,8.24,,47.59359,-54.27349
2019-02-23 23:00:00+00:00,337.0,330.0,5.01,6.75,,47.59359,-54.27349
2019-02-23 23:10:00+00:00,2.0,5.0,3.33,5.75,,47.59359,-54.27349
2019-02-23 23:20:00+00:00,354.0,348.0,4.19,5.71,,47.59359,-54.27349
2019-02-23 23:30:00+00:00,349.0,347.0,5.3,6.79,,47.59359,-54.27349
2019-02-23 23:40:00+00:00,336.0,327.0,5.23,8.67,,47.59359,-54.27349
2019-02-23 23:50:00+00:00,319.0,316.0,7.65,9.76,,47.59359,-54.27349
